Theta_e
336 334 331 328 328 327 326 325 321 316 316 323 321 334 329 326 328 325 327 328 327 330 330 327 326 326 328 327 326 327 327 327 327 328 330 332 329 327
331 334 332 328 328 327 327 326 324 320 315 320 321 327 327 323 325 327 325 327 327 329 326 325 325 326 327 328 325 325 325 326 325 325 326 327 330 331
334 332 329 330 327 327 327 326 324 322 317 319 321 324 330 327 325 324 323 327 323 328 327 325 325 325 326 327 325 324 323 323 323 323 323 324 325 327
331 330 327 325 329 330 326 327 324 323 317 321 323 318 325 329 328 328 323 322 325 328 326 327 327 325 325 324 323 322 322 321 320 319 320 321 322 323
330 328 325 326 327 325 325 323 320 319 319 315 315 316 317 320 320 326 326 328 322 328 328 329 327 326 325 324 321 320 318 318 317 317 318 319 320 321
329 327 325 324 322 321 319 321 319 316 317 313 312 312 314 322 319 316 315 319 319 320 325 324 325 327 328 326 323 322 319 316 315 315 316 316 316 317
328 325 323 315 311 312 313 314 315 312 311 310 310 310 312 314 316 316 314 316 319 321 320 321 322 322 322 324 326 326 320 318 316 315 315 314 314 315
327 325 324 319 319 317 315 313 314 314 313 311 309 310 318 316 316 314 314 312 312 321 319 319 322 320 320 321 323 322 319 318 318 316 315 315 314 314
327 326 322 321 320 315 316 318 319 317 314 316 313 313 314 317 317 316 317 314 314 319 321 314 320 318 320 317 324 320 318 318 317 317 316 315 313 312
326 325 324 322 313 310 311 316 317 318 319 314 315 314 317 319 317 318 320 321 319 318 322 312 317 315 319 320 323 319 318 317 317 316 315 313 310 309
325 324 321 319 306 306 311 315 317 316 315 316 314 313 313 314 314 315 312 312 309 312 317 313 313 314 316 317 319 318 316 314 315 315 314 311 308 307
324 323 308 310 304 304 309 313 312 310 310 315 317 322 319 319 316 319 317 310 310 309 316 312 312 313 310 314 316 319 319 314 312 310 310 307 306 308
318 318 315 306 304 304 303 311 307 306 311 315 316 314 317 317 314 317 322 314 311 310 315 315 313 312 310 310 312 317 319 317 318 316 310 306 305 305
318 316 311 306 305 305 305 303 304 305 312 312 312 311 311 311 313 315 324 322 318 320 323 328 312 311 309 309 308 313 316 317 316 314 313 309 307 305
318 306 306 305 303 304 305 307 306 312 311 310 310 310 311 312 320 318 319 325 323 325 321 326 317 315 310 308 308 310 311 312 313 312 310 308 307 304
309 310 311 309 305 310 310 310 312 312 311 310 310 311 312 311 311 311 310 311 311 312 321 324 326 318 309 309 308 308 310 306 311 310 308 308 306 304
314 316 313 314 314 315 314 312 312 312 311 311 310 310 310 310 310 311 311 310 308 308 308 312 320 321 315 313 306 307 308 307 308 308 306 303 304 303
310 313 313 314 313 313 311 310 312 313 311 311 310 310 309 309 308 310 310 309 307 307 308 310 311 310 309 312 312 307 306 305 306 307 305 301 300 302
310 314 313 313 314 314 310 310 310 311 315 311 310 310 309 308 308 308 308 307 306 307 308 310 309 307 303 302 307 309 304 304 303 302 302 300 298 301
311 314 313 314 313 313 311 311 311 311 310 310 310 309 309 308 308 307 307 307 306 307 305 307 307 306 304 303 302 306 304 303 302 300 297 299 301 302
310 313 314 313 313 312 312 312 312 310 308 310 309 309 309 309 307 307 306 302 303 306 303 304 308 309 310 307 301 301 303 304 301 296 295 295 293 295
314 313 314 314 313 312 312 312 310 309 309 309 308 309 309 308 306 306 306 305 305 305 304 306 309 307 304 302 299 299 299 302 303 302 298 296 292 289
314 313 313 312 311 310 310 309 307 307 309 308 308 309 308 305 307 306 306 305 305 304 304 304 303 303 302 301 299 297 298 298 298 296 297 296 296 296
Wind_Speed
2 3 6 4 5 5 5 6 7 8 8 7 8 7 8 9 11 11 11 14 20 19 7 7 10 12 13 14 14 13 9 11 12 14 14 11 12 6
3 3 6 6 6 4 5 5 5 7 8 9 9 9 8 9 11 10 12 18 12 12 5 8 8 9 12 12 11 10 10 11 13 15 15 14 14 11
1 2 3 3 6 5 5 5 6 7 9 8 9 9 9 7 8 9 11 10 10 3 9 9 11 11 12 13 12 9 8 7 9 11 16 16 16 17
2 2 4 5 5 1 6 5 6 6 7 10 8 10 7 8 7 10 7 9 8 5 10 12 12 12 14 13 11 11 8 5 4 8 14 17 15 17
2 1 3 4 4 6 6 7 7 7 8 8 10 9 8 6 10 9 9 10 9 13 12 11 11 14 17 16 14 7 6 4 8 5 10 13 17 18
2 2 3 4 4 6 7 7 7 8 8 9 9 9 8 8 9 9 10 9 10 11 11 12 14 14 12 14 9 8 7 6 5 4 10 12 11 13
3 1 4 3 1 2 5 7 7 7 8 9 9 9 9 10 10 11 11 11 10 10 10 10 9 9 9 10 5 10 10 11 7 6 7 8 10 13
3 3 4 9 6 11 7 7 6 6 7 8 9 9 9 10 10 11 11 12 10 10 12 10 9 9 9 10 7 4 6 8 7 8 11 8 9 11
3 2 5 6 3 7 8 10 13 17 15 7 9 9 11 11 11 11 11 11 12 13 10 11 9 10 9 12 7 4 4 8 7 8 11 7 7 10
3 2 3 3 7 6 9 9 8 9 6 5 9 10 10 9 10 10 12 13 11 9 10 11 11 11 10 10 8 7 9 9 3 7 11 8 7 10
4 1 3 2 5 5 8 8 9 9 5 6 10 15 18 18 17 8 10 11 12 12 10 11 12 12 11 11 9 7 7 1 4 8 8 5 15 17
5 7 4 2 2 3 7 8 8 9 11 11 12 10 14 14 22 10 9 11 11 12 11 12 12 12 12 8 12 11 8 7 9 4 4 7 11 12
5 7 8 8 4 3 6 7 8 10 12 12 8 7 7 8 7 6 8 9 11 12 11 10 11 12 11 13 11 10 10 8 11 10 12 11 10 13
4 3 9 9 6 6 7 5 10 10 10 8 8 8 8 9 9 9 9 8 10 12 13 8 10 11 11 13 13 11 11 8 11 8 11 15 11 19
1 9 10 7 8 9 13 13 11 7 7 8 8 8 8 8 9 9 10 10 10 10 7 9 8 9 11 12 13 13 10 11 8 11 10 12 11 11
6 5 4 4 6 7 5 10 7 5 6 7 8 8 8 9 10 10 10 10 11 10 11 11 7 10 10 10 12 12 10 8 11 9 9 11 9 8
9 7 7 8 4 4 3 3 4 4 6 6 7 8 9 9 8 10 10 11 11 11 12 10 10 10 8 6 10 12 10 9 10 11 10 12 12 8
5 6 6 4 3 3 3 4 3 2 5 7 7 8 9 9 10 10 10 10 11 11 11 11 11 10 10 10 5 9 7 8 11 12 10 11 13 9
6 7 4 3 3 2 3 3 4 4 5 6 7 8 8 9 10 10 10 10 11 11 11 11 12 12 13 14 7 10 10 10 10 9 9 9 12 11
8 6 5 4 3 2 3 3 3 4 5 6 7 7 8 9 10 10 10 11 12 11 11 11 11 12 13 9 11 12 9 10 10 10 9 12 10 19
9 6 4 4 3 2 1 2 2 4 4 6 6 7 8 9 9 10 10 11 11 11 13 12 11 15 11 11 12 8 9 13 8 7 10 12 10 7
7 6 6 4 2 2 2 2 4 3 3 5 6 7 7 8 9 10 10 12 12 12 13 12 13 13 12 10 11 13 12 12 11 16 21 16 8 8
6 6 6 6 4 4 3 3 3 3 3 4 5 6 7 8 8 9 10 12 11 13 14 11 13 10 9 13 12 11 15 13 10 11 10 21 20 18
Wind_Direction
116 17 314 8 354 335 333 339 334 327 334 340 339 3 354 336 336 345 326 327 310 296 287 298 315 322 320 320 322 315 332 336 344 330 339 289 288 324
26 12 334 15 306 337 343 328 324 321 309 329 344 334 354 322 335 339 325 297 298 282 253 283 299 297 295 295 308 313 323 335 342 337 332 325 308 278
59 6 0 336 352 357 329 1 325 343 316 324 313 341 309 338 314 324 305 300 309 241 228 258 272 269 271 280 292 300 321 330 327 330 326 317 308 297
79 338 358 348 329 49 320 21 319 311 322 303 331 311 324 318 347 307 314 317 315 314 234 242 253 261 262 258 259 264 286 315 13 328 311 301 299 296
70 25 349 346 349 350 331 344 339 341 315 321 301 317 331 348 335 319 342 311 314 330 291 250 251 253 253 250 240 228 257 269 323 342 294 290 295 291
108 28 11 13 357 355 331 336 1 322 323 310 320 322 325 355 325 334 328 332 332 321 323 355 300 278 278 253 226 216 236 254 267 306 300 300 292 294
135 239 107 52 175 309 335 357 325 334 334 327 323 321 348 342 331 339 329 320 330 335 340 309 313 333 326 319 128 206 219 227 250 258 269 278 290 292
186 215 184 189 225 225 239 248 273 295 316 320 318 333 318 323 337 338 316 333 321 322 308 310 330 320 329 313 100 107 225 253 265 262 268 261 279 295
195 236 278 98 285 355 335 282 251 231 239 286 299 322 315 331 328 315 319 310 301 296 306 327 329 337 329 319 145 172 270 250 249 266 272 264 268 272
202 211 268 331 57 351 327 308 325 318 296 276 318 306 295 303 290 293 295 291 295 321 336 324 336 328 321 325 224 201 238 226 217 272 280 274 290 252
181 90 334 358 57 10 317 320 319 316 354 299 247 259 258 260 257 295 313 316 325 329 335 345 331 321 328 312 336 317 275 128 213 255 248 325 317 311
192 147 148 39 87 350 323 320 328 335 325 307 293 269 244 246 247 236 285 321 319 316 344 340 322 329 321 328 331 309 324 155 215 140 49 329 323 325
205 186 146 158 178 259 285 312 318 307 297 286 299 327 339 334 339 351 325 314 317 317 323 312 319 322 324 325 317 320 337 2 348 357 344 357 336 336
222 169 117 159 201 243 271 307 284 290 283 324 326 338 339 337 345 320 297 297 291 282 284 296 318 325 328 315 314 340 326 13 349 341 331 340 339 335
323 84 126 185 232 239 232 253 277 294 342 322 339 337 336 331 315 325 328 309 312 309 339 328 322 337 317 316 337 325 336 353 353 321 338 336 346 329
151 168 182 256 288 298 259 219 255 344 321 324 329 329 329 335 331 345 324 336 329 336 343 334 341 331 325 354 327 314 2 342 324 331 333 331 333 318
172 178 210 214 243 232 310 307 299 342 326 333 325 332 336 336 338 332 338 335 341 338 337 334 344 326 342 350 332 327 346 331 321 335 334 330 332 324
197 225 219 217 253 301 303 308 304 337 354 315 331 338 336 336 343 328 341 339 342 343 334 337 336 334 341 325 10 351 354 328 338 335 335 328 325 326
229 218 221 211 243 278 292 305 324 3 297 329 331 338 340 338 328 340 340 352 344 338 344 340 336 349 337 335 345 73 357 349 335 329 337 332 318 319
248 226 201 201 223 244 280 311 334 321 349 338 329 340 342 335 332 342 344 349 345 338 346 345 336 1 334 346 348 357 14 340 342 341 342 320 324 310
212 211 196 195 202 204 230 278 320 321 327 314 337 343 343 328 341 344 345 344 333 348 354 341 1 6 334 3 352 345 354 21 48 13 355 342 328 316
193 192 173 199 170 206 218 271 271 299 335 339 346 342 333 332 342 347 347 347 351 0 358 327 18 4 358 355 352 347 356 350 358 334 47 14 343 326
191 193 174 168 178 189 217 231 264 306 357 354 346 334 340 338 345 352 353 1 5 13 349 354 15 348 356 1 359 350 350 353 347 347 9 15 2 353